ENT3EY LEPA-EPWA

Flight info

Callsign ENT3EY
Flight time N/A
Altitude 36000
Route ISTER DCT NIVDA DCT OMEDA DCT RAPUR DCT TORTU/N0445F360 DCT ERTEV DCT MALUG/N0442F350 DCT INGID DCT GAMLI DCT STO DCT LEDVA DCT NETIR DCT USALO DCT KOTEK DCT LOGDA
Aircraft B738/M-SDFGHIJ1RWXY/EB1

Departure

Time 2026-05-04 14:58
Airport Palma de Mallorca Airport (LEPA)

Arrival

Time N/A
Airport Warsaw Chopin Airport (EPWA)
Time Latitude Longitude Altitude Speed Heading
2026-05-04 14:36 39.54837 2.73572 29 ft 0 kts 58°
2026-05-04 14:47 39.54837 2.73571 29 ft 2 kts 58°
2026-05-04 14:47 39.54824 2.73543 29 ft 4 kts 65°
2026-05-04 14:48 39.54817 2.73512 29 ft 4 kts 96°
2026-05-04 14:48 39.54823 2.73493 29 ft 0 kts 156°
2026-05-04 14:52 39.54802 2.73507 29 ft 7 kts 152°
2026-05-04 14:53 39.54739 2.73556 29 ft 14 kts 148°
2026-05-04 14:53 39.54662 2.73629 29 ft 14 kts 116°
2026-05-04 14:53 39.54693 2.73741 29 ft 14 kts 58°
2026-05-04 14:53 39.54752 2.73865 29 ft 20 kts 58°
2026-05-04 14:54 39.54839 2.73999 29 ft 19 kts
2026-05-04 14:54 39.54941 2.73984 29 ft 15 kts 57°
2026-05-04 14:54 39.55019 2.73977 29 ft 12 kts 328°
2026-05-04 14:54 39.55106 2.73908 29 ft 19 kts 328°
2026-05-04 14:55 39.55245 2.73799 29 ft 28 kts 328°
2026-05-04 14:55 39.55420 2.73661 29 ft 29 kts 329°
2026-05-04 14:55 39.55588 2.73528 29 ft 24 kts 328°
2026-05-04 14:55 39.55698 2.73588 29 ft 21 kts 59°
2026-05-04 14:56 39.55775 2.73752 29 ft 23 kts 58°
2026-05-04 14:56 39.55858 2.73929 29 ft 23 kts 58°
2026-05-04 14:56 39.55938 2.74098 29 ft 22 kts 58°
2026-05-04 14:56 39.56018 2.74266 29 ft 21 kts 59°
2026-05-04 14:57 39.56095 2.74425 29 ft 18 kts 50°
2026-05-04 14:57 39.56173 2.74447 29 ft 10 kts 337°
2026-05-04 14:57 39.56230 2.74401 29 ft 10 kts 320°
2026-05-04 14:57 39.56252 2.74325 29 ft 9 kts 259°
2026-05-04 14:58 39.56212 2.74228 29 ft 30 kts 237°
2026-05-04 14:58 39.55973 2.73724 29 ft 100 kts 238°
2026-05-04 14:58 39.55498 2.72737 55 ft 153 kts 237°
2026-05-04 14:58 39.54959 2.71504 667 ft 163 kts 237°
2026-05-04 14:59 39.54362 2.70271 1603 ft 156 kts 236°
2026-05-04 14:59 39.53773 2.69089 2416 ft 159 kts 236°
2026-05-04 14:59 39.52542 2.66622 3662 ft 179 kts 236°
2026-05-04 15:00 39.51818 2.65162 3875 ft 204 kts 237°
2026-05-04 15:00 39.51014 2.63536 4171 ft 221 kts 236°
2026-05-04 15:00 39.50173 2.61838 4572 ft 237 kts 234°
2026-05-04 15:01 39.47434 2.59171 4986 ft 256 kts 210°
2026-05-04 15:01 39.45849 2.58047 4986 ft 255 kts 210°
2026-05-04 15:01 39.44175 2.57452 4993 ft 257 kts 181°
2026-05-04 15:01 39.42434 2.57984 5025 ft 261 kts 159°
2026-05-04 15:02 39.40935 2.59392 5398 ft 275 kts 136°
2026-05-04 15:02 39.39910 2.61522 6213 ft 285 kts 114°
2026-05-04 15:02 39.39605 2.64090 6994 ft 295 kts 92°
2026-05-04 15:02 39.39700 2.66757 7745 ft 300 kts 89°
2026-05-04 15:03 39.39856 2.69479 8481 ft 305 kts 88°
2026-05-04 15:03 39.40025 2.72227 9267 ft 309 kts 88°
2026-05-04 15:03 39.40191 2.75017 10000 ft 314 kts 88°
2026-05-04 15:03 39.40353 2.77879 10438 ft 330 kts 88°
2026-05-04 15:04 39.40518 2.80944 10607 ft 353 kts 88°
2026-05-04 15:04 39.40688 2.84183 11032 ft 366 kts 88°
2026-05-04 15:04 39.40858 2.87453 11668 ft 371 kts 88°
2026-05-04 15:04 39.41030 2.90792 12405 ft 373 kts 88°
2026-05-04 15:05 39.41200 2.94154 13115 ft 377 kts 88°
2026-05-04 15:05 39.41370 2.97553 13807 ft 381 kts 88°
2026-05-04 15:05 39.41541 3.00990 14412 ft 385 kts 88°
2026-05-04 15:05 39.41712 3.04469 14979 ft 391 kts 88°
2026-05-04 15:06 39.41885 3.08004 15547 ft 396 kts 88°
2026-05-04 15:06 39.42059 3.11591 16130 ft 401 kts 88°
2026-05-04 15:06 39.42235 3.15213 16711 ft 406 kts 88°
2026-05-04 15:07 39.42651 3.22598 17796 ft 418 kts 82°
2026-05-04 15:07 39.43333 3.26236 18334 ft 423 kts 71°
2026-05-04 15:07 39.44489 3.29749 18833 ft 426 kts 60°
2026-05-04 15:07 39.45983 3.33082 19314 ft 430 kts 58°
2026-05-04 15:08 39.47546 3.36406 19774 ft 435 kts 57°
2026-05-04 15:08 39.49139 3.39765 20220 ft 440 kts 57°
2026-05-04 15:08 39.50742 3.43163 20694 ft 444 kts 58°
2026-05-04 15:08 39.52349 3.46605 21155 ft 449 kts 58°
2026-05-04 15:09 39.53958 3.50084 21607 ft 453 kts 58°
2026-05-04 15:09 39.55578 3.53609 22048 ft 457 kts 59°
2026-05-04 15:09 39.57208 3.57169 22486 ft 461 kts 59°
2026-05-04 15:10 39.60502 3.64392 23340 ft 470 kts 59°
2026-05-04 15:10 39.62177 3.68069 23717 ft 474 kts 59°
2026-05-04 15:10 39.65524 3.75430 24487 ft 479 kts 59°
2026-05-04 15:11 39.67222 3.79168 24875 ft 481 kts 59°
2026-05-04 15:11 39.68926 3.82925 25239 ft 484 kts 60°